Flag for Germany Weather past 2 weeks in Giessen, Hesse, Germany

Now
41 °F

Sunny.


Feels Like: 36 °F
Forecast: 34 / 42 °F
Wind: 8 mph from West

Location: Giessen

Current Time: Mar 2, 2015 at 12:27:46 PM

Latest Report: Mar 2, 2015 at 12:00 PM


Visibility: 25 mi

Pressure: 29.73 "Hg

Humidity: 68%

Dew point: 32 °F

Location of GiessenLocation

Historic Weather in Giessen — Graph

°F

Giessen temperature yesterday

Maximum temperature yesterday: 51 °F (at 3:00 PM)
Minimum temperature yesterday: 35 °F (at 8:00 AM)
Average temperature yesterday: 41 °F

Past Weeks' High & Low Weather Summary

 TemperatureHumidityPressure
High51 °F (Mar 1, 3:00 PM)100% (Feb 16, 7:00 AM)30.77 "Hg (Feb 16, 7:00 AM)
Low26 °F (Feb 16, 5:00 AM)52% (Feb 28, 5:00 PM)29.41 "Hg (Feb 21, 7:00 AM)
Average37 °F86%30.00 "Hg
* Reported Feb 15 11:00 AM — Mar 2 11:00 AM, Giessen, Weather by CustomWeather, © 2015

Note: Actual official high and low records may vary slightly from our data, if they occured in-between our weather recording intervals... More about our weather records

Advertising

Giessen weather history for previous 24 hours

 ConditionsComfort  
Time TempWeatherWind HumidityBarometerVisibility
11:00 AM
Mon, Mar 2
39 °FScattered clouds.5 mph89%29.71 "Hg34 mi
10:00 AM40 °FDrizzle. Low clouds.7 mph87%29.69 "Hg19 mi
9:00 AM40 °FOvercast.7 mph85%29.65 "Hg28 mi
8:00 AM39 °FOvercast.6 mph84%29.63 "Hg28 mi
7:00 AM38 °FPassing clouds.6 mph83%29.60 "Hg34 mi
6:00 AM41 °FPassing clouds.8 mph81%29.58 "Hg28 mi
5:00 AM41 °FPassing clouds.8 mph86%29.57 "Hg43 mi
4:00 AM41 °FLow clouds.9 mph87%29.55 "Hg43 mi
3:00 AM44 °FLow clouds.6 mph91%29.47 "Hg25 mi
2:00 AM45 °FDrizzle. Low clouds.5 mph86%29.50 "Hg19 mi
1:00 AM42 °FPassing clouds.5 mph86%29.55 "Hg19 mi
12:00 AM43 °FOvercast.2 mph87%29.59 "Hg19 mi
11:00 PM
Sun, Mar 1
39 °FOvercast.1 mph93%29.63 "Hg12 mi
10:00 PM42 °FOvercast.5 mph87%29.65 "Hg19 mi
9:00 PM41 °FPassing clouds.3 mph94%29.67 "Hg15 mi
8:00 PM42 °FClear.6 mph91%29.68 "Hg22 mi
7:00 PM43 °FOvercast.7 mph90%29.68 "Hg25 mi
6:00 PM45 °FLight rain. Low clouds.3 mph85%29.68 "Hg14 mi
5:00 PM50 °FOvercast.8 mph63%29.65 "Hg28 mi
4:00 PM50 °FScattered clouds.9 mph57%29.65 "Hg22 mi
3:00 PM51 °FOvercast.12 mph68%29.65 "Hg16 mi
2:00 PM48 °FOvercast.8 mph82%29.66 "Hg37 mi
1:00 PM47 °FLow clouds.6 mph89%29.68 "Hg17 mi
12:00 PM40 °FDrizzle. Low clouds.3 mph95%29.71 "Hg6 mi
Weather by CustomWeather, © 2015

See weather overviewHow to use our weather pages